1530586800.12,23481,15.0,73732.8,-1.67,-31.51,-32.23,0,*5A
1530586801.36,23482,15.0,73738.3,-1.67,-31.33,-31.95,0,*53
1530586802.63,23483,15.0,73736.3,-1.67,-31.11,-31.61,0,*59
1530586803.89,23484,15.0,73738.3,-1.65,-30.67,-31.23,0,*5A
1530586805.13,23485,15.0,73736.0,-1.67,-31.11,-31.79,0,*56
1530586806.39,23486,15.0,73740.8,-1.65,-30.77,-31.29,0,*53
1530586807.63,23487,15.0,73738.8,-1.67,-30.77,-31.29,0,*50
1530586808.9,23488,15.0,73736.5,-1.65,-30.39,-30.95,0,*51
1530586810.13,23489,15.0,73730.8,-1.63,-30.73,-31.33,0,*55
1530586811.37,23490,15.0,73728.8,-1.67,-31.33,-31.85,0,*51
1530586812.63,23491,15.0,73730.3,-1.65,-31.29,-31.91,0,*5C
1530586813.92,23492,15.0,73730.8,-1.65,-31.57,-32.19,0,*55
1530586815.18,23493,15.0,73734.8,-1.67,-31.51,-32.07,0,*5F
1530586816.38,23494,15.0,73734.5,-1.67,-31.67,-32.23,0,*5B
1530586817.6,23495,15.0,73746.3,-1.67,-31.79,-32.39,0,*5E
1530586818.81,23496,15.0,73742.3,-1.67,-31.79,-32.35,0,*51
1530586820.02,23497,15.0,73742.3,-1.67,-31.29,-31.67,0,*51
1530586821.25,23498,15.0,73738.0,-1.67,-31.29,-31.85,0,*52
1530586822.48,23499,15.0,73738.0,-1.65,-31.29,-31.79,0,*52
1530586823.74,23500,15.0,73736.3,-1.67,-31.39,-31.95,0,*52
1530586824.98,23501,15.0,73738.0,-1.67,-31.33,-31.85,0,*58
1530586826.22,23502,15.0,73746.0,-1.67,-31.45,-31.95,0,*5B
1530586827.46,23503,15.0,73746.8,-1.67,-31.45,-32.07,0,*52
1530586828.75,23504,15.0,73748.0,-1.65,-31.57,-32.19,0,*5B
1530586830.04,23505,15.0,73746.5,-1.65,-31.61,-32.19,0,*5F
1530586831.25,23506,15.0,73742.5,-1.67,-31.79,-32.39,0,*55
1530586832.5,23507,15.0,73742.0,-1.67,-31.85,-32.51,0,*59
1530586833.74,23508,15.0,73736.3,-1.67,-31.95,-32.51,0,*57
1530586834.99,23509,15.0,73740.8,-1.67,-32.01,-32.75,0,*5E
1530586836.22,23510,15.0,73740.5,-1.67,-32.07,-32.57,0,*50
1530586837.43,23511,15.0,73740.0,-1.67,-32.01,-32.57,0,*57
1530586838.66,23512,15.0,73740.5,-1.69,-32.01,-32.57,0,*5A
1530586839.93,23513,15.0,73740.8,-1.71,-32.07,-32.63,0,*53
1530586841.19,23514,15.0,73742.5,-1.69,-31.85,-32.51,0,*55
1530586842.43,23515,15.0,73742.3,-1.71,-32.01,-32.63,0,*53
1530586843.67,23516,15.0,73740.5,-1.71,-32.01,-32.45,0,*54
1530586844.94,23517,15.0,73744.3,-1.71,-31.91,-32.63,0,*5B
1530586846.17,23518,15.0,73750.5,-1.69,-32.01,-32.57,0,*50
1530586847.4,23519,15.0,73748.0,-1.71,-32.07,-32.57,0,*5E
1530586848.64,23520,15.0,73744.3,-1.71,-31.73,-32.13,0,*54
1530586849.88,23521,15.0,73746.0,-1.71,-31.57,-32.01,0,*50
1530586851.1,23522,15.0,73744.0,-1.73,-31.67,-32.13,0,*51
1530586852.33,23523,15.0,73752.3,-1.73,-31.67,-32.13,0,*50
1530586853.56,23524,15.0,73748.8,-1.71,-31.51,-32.01,0,*53
1530586854.8,23525,15.0,73750.0,-1.71,-31.57,-32.23,0,*54
1530586856.05,23526,15.0,73750.8,-1.73,-31.57,-32.13,0,*56
1530586857.28,23527,15.0,73750.0,-1.73,-31.67,-32.23,0,*57
1530586858.54,23528,15.0,73750.0,-1.73,-31.23,-31.67,0,*5B
1530586859.74,23529,15.0,73748.5,-1.71,-31.67,-32.13,0,*58
1530586860.97,23530,15.0,73748.8,-1.73,-30.67,-31.33,0,*52
1530586862.23,23531,15.0,73750.0,-1.73,-30.45,-30.89,0,*53
1530586863.49,23532,15.0,73748.5,-1.69,-29.79,-30.39,0,*57
1530586864.72,23533,15.0,73750.8,-1.71,-29.13,-29.61,0,*56
1530586866.02,23534,15.0,73744.3,-1.69,-29.39,-29.89,0,*56
1530586867.31,23535,15.0,73746.5,-1.65,-29.35,-29.73,0,*52
1530586868.55,23536,15.0,73750.3,-1.63,-29.39,-29.95,0,*53
1530586869.79,23537,15.0,73750.5,-1.63,-29.95,-30.17,0,*56
1530586871.01,23538,15.0,73744.8,-1.63,-29.45,-29.83,0,*51
1530586872.28,23539,15.0,73744.5,-1.59,-29.35,-29.73,0,*51
1530586873.52,23540,15.0,73746.3,-1.59,-29.23,-29.73,0,*58
1530586874.75,23541,15.0,73750.0,-1.55,-29.79,-30.39,0,*5C
1530586875.99,23542,15.0,73742.5,-1.55,-30.11,-30.61,0,*54
1530586877.25,23543,15.0,73742.8,-1.55,-30.39,-30.77,0,*58
1530586878.53,23544,15.0,73746.0,-1.53,-30.05,-30.55,0,*56
1530586879.77,23545,15.0,73750.0,-1.53,-29.83,-30.23,0,*50
1530586881.03,23546,15.0,73746.3,-1.53,-29.73,-30.23,0,*5C
1530586882.28,23547,15.0,73748.5,-1.51,-30.51,-30.95,0,*5A
1530586883.54,23548,15.0,73750.3,-1.51,-30.73,-31.23,0,*59
1530586884.82,23549,15.0,73746.5,-1.49,-30.89,-31.51,0,*51
1530586886.06,23550,15.0,73750.0,-1.49,-30.67,-31.17,0,*5B
1530586887.32,23551,15.0,73750.5,-1.49,-30.17,-30.67,0,*5B
1530586888.58,23552,15.0,73746.5,-1.51,-30.61,-31.23,0,*51
1530586889.86,23553,15.0,73748.5,-1.49,-30.89,-31.51,0,*5A
1530586891.1,23554,15.0,73748.0,-1.51,-30.95,-31.45,0,*5C
1530586892.32,23555,15.0,73736.5,-1.49,-31.17,-31.67,0,*5F
1530586893.57,23556,15.0,73738.5,-1.49,-31.05,-31.57,0,*5C
1530586894.82,23557,15.0,73742.5,-1.49,-31.05,-31.57,0,*5D
1530586896.1,23558,15.0,73748.3,-1.49,-31.39,-31.95,0,*53
1530586897.35,23559,15.0,73750.0,-1.49,-31.39,-31.79,0,*50
1530586898.58,23560,15.0,73750.0,-1.51,-31.29,-31.85,0,*51
1530586899.81,23561,15.0,73744.5,-1.51,-31.29,-31.85,0,*50
1530586901.05,23562,15.0,73742.5,-1.53,-31.45,-32.01,0,*54
1530586902.28,23563,15.0,73750.5,-1.51,-31.29,-31.85,0,*52
1530586903.51,23564,15.0,73750.0,-1.51,-31.29,-31.85,0,*55
1530586904.74,23565,15.0,73748.8,-1.51,-31.29,-31.85,0,*54
1530586906.03,23566,15.0,73752.5,-1.53,-31.23,-31.85,0,*5F
1530586907.28,23567,15.0,73752.5,-1.51,-31.39,-31.95,0,*56
1530586908.53,23568,15.0,73750.3,-1.53,-30.39,-31.05,0,*53
1530586909.79,23569,15.0,73750.0,-1.51,-30.01,-30.51,0,*5B
1530586911.03,23570,15.0,73748.0,-1.49,-30.11,-30.67,0,*5E
1530586912.26,23571,15.0,73748.0,-1.49,-29.83,-30.27,0,*58
1530586913.49,23572,15.0,73748.0,-1.49,-29.23,-29.79,0,*52
1530586914.78,23573,15.0,73746.0,-1.47,-29.51,-30.01,0,*5F
1530586916.04,23574,15.0,73748.0,-1.47,-28.97,-29.39,0,*50
1530586917.25,23575,15.0,73748.8,-1.45,-28.85,-29.23,0,*5B
1530586918.5,23576,15.0,73746.0,-1.43,-28.47,-28.97,0,*5E
1530586919.76,23577,15.0,73748.0,-1.39,-27.93,-28.43,0,*5D
1530586921.02,23578,15.0,73746.0,-1.35,-28.05,-28.53,0,*5F
1530586922.25,23579,15.0,73746.8,-1.31,-27.07,-27.51,0,*5A
1530586923.48,23580,15.0,73744.0,-1.27,-27.51,-27.93,0,*56
1530586924.73,23581,15.0,73746.5,-1.23,-27.23,-27.55,0,*5C
1530586925.99,23582,15.0,73740.8,-1.21,-26.81,-27.23,0,*55
1530586927.25,23583,15.0,73736.5,-1.19,-27.51,-27.99,0,*52
1530586928.5,23584,15.0,73732.5,-1.17,-28.05,-28.63,0,*5F
1530586929.76,23585,15.0,73730.0,-1.15,-28.75,-29.29,0,*54
1530586930.99,23586,15.0,73734.0,-1.15,-29.13,-29.67,0,*5C
1530586932.26,23587,15.0,73738.5,-1.15,-28.79,-29.35,0,*57
1530586933.51,23588,15.0,73734.5,-1.13,-29.83,-30.33,0,*54
1530586934.72,23589,15.0,73732.3,-1.11,-30.27,-30.83,0,*5A
1530586935.98,23590,15.0,73734.5,-1.13,-30.51,-31.05,0,*5E
1530586937.23,23591,15.0,73732.5,-1.13,-29.83,-30.33,0,*5C
1530586938.47,23592,15.0,73730.0,-1.13,-30.23,-30.67,0,*5C
1530586939.72,23593,15.0,73738.3,-1.13,-30.55,-31.05,0,*59
1530586940.98,23594,15.0,73734.8,-1.11,-30.61,-31.23,0,*5F
1530586942.22,23595,15.0,73736.8,-1.13,-30.67,-31.29,0,*50
1530586943.5,23596,15.0,73742.0,-1.13,-30.89,-31.39,0,*52
1530586944.79,23597,15.0,73742.5,-1.13,-30.55,-30.89,0,*58
1530586946.03,23598,15.0,73742.0,-1.13,-30.23,-30.83,0,*5C
1530586947.27,23599,15.0,73746.0,-1.13,-30.23,-30.83,0,*5D
1530586948.51,23600,15.0,73744.0,-1.13,-29.79,-30.23,0,*53
1530586949.75,23601,15.0,73736.3,-1.13,-29.67,-30.33,0,*5C
1530586951.01,23602,15.0,73738.5,-1.13,-29.95,-30.51,0,*56
1530586952.25,23603,15.0,73740.5,-1.13,-30.33,-30.83,0,*5C
1530586953.48,23604,15.0,73736.3,-1.11,-30.61,-31.33,0,*54
1530586954.76,23605,15.0,73742.0,-1.13,-30.89,-31.57,0,*53
1530586956.02,23606,15.0,73744.5,-1.13,-31.01,-31.61,0,*54
1530586957.26,23607,15.0,73744.8,-1.13,-30.83,-31.45,0,*58
1530586958.52,23608,15.0,73742.3,-1.11,-30.61,-31.11,0,*58
1530586959.78,23609,15.0,73746.3,-1.13,-31.05,-31.61,0,*5F
1530586961.04,23610,15.0,73728.8,-1.13,-31.23,-31.79,0,*5A
1530586962.33,23611,15.0,73732.8,-1.13,-31.23,-31.91,0,*5D
1530586963.55,23612,15.0,73730.0,-1.17,-31.51,-32.13,0,*56
1530586964.82,23613,15.0,73730.8,-1.15,-31.39,-31.95,0,*56
1530586966.05,23614,15.0,73734.3,-1.17,-31.33,-31.95,0,*59
1530586967.27,23615,15.0,73734.3,-1.17,-31.45,-31.85,0,*58
1530586968.48,23616,15.0,73732.5,-1.17,-31.45,-32.01,0,*54
1530586969.71,23617,15.0,73740.8,-1.17,-31.29,-31.95,0,*51
1530586970.94,23618,15.0,73744.3,-1.17,-31.45,-31.95,0,*54
1530586972.17,23619,15.0,73746.0,-1.17,-31.33,-31.85,0,*55
1530586973.39,23620,15.0,73740.8,-1.17,-31.33,-31.85,0,*5F
1530586974.64,23621,15.0,73742.8,-1.19,-31.33,-31.95,0,*51
1530586975.9,23622,15.0,73742.5,-1.19,-31.33,-31.95,0,*52
1530586977.13,23623,15.0,73746.5,-1.19,-31.45,-32.01,0,*5C
1530586978.36,23624,15.0,73746.8,-1.21,-31.39,-32.01,0,*5B
1530586979.58,23625,15.0,73748.8,-1.17,-31.05,-31.61,0,*55
1530586980.8,23626,15.0,73748.0,-1.21,-30.27,-30.67,0,*55
1530586982.05,23627,15.0,73744.3,-1.19,-29.57,-30.05,0,*54
1530586983.34,23628,15.0,73740.0,-1.19,-29.51,-30.05,0,*5D
1530586984.57,23629,15.0,73746.3,-1.17,-29.17,-29.67,0,*5C
1530586985.78,23630,15.0,73744.3,-1.15,-29.23,-29.67,0,*51
1530586987.0,23631,15.0,73746.0,-1.15,-29.67,-30.23,0,*58
1530586988.26,23632,15.0,73744.3,-1.13,-29.95,-30.39,0,*5B
1530586989.47,23633,15.0,73748.8,-1.11,-29.79,-30.27,0,*55
1530586990.71,23634,15.0,73748.3,-1.11,-29.95,-30.51,0,*51
1530586991.97,23635,15.0,73744.0,-1.11,-29.73,-30.17,0,*5A
1530586993.21,23636,15.0,73742.5,-1.13,-30.33,-30.83,0,*5A
1530586994.42,23637,15.0,73740.0,-1.11,-29.61,-30.11,0,*5D
1530586995.63,23638,15.0,73746.3,-1.11,-29.95,-30.45,0,*58
1530586996.89,23639,15.0,73742.3,-1.07,-30.01,-30.51,0,*5E
1530586998.15,23640,15.0,73740.8,-1.07,-30.77,-31.39,0,*5E
1530586999.39,23641,15.0,73742.0,-1.07,-30.77,-31.33,0,*55
1530587000.65,23642,15.0,73740.3,-1.07,-30.95,-31.51,0,*5E
1530587001.92,23643,15.0,73744.8,-1.07,-31.11,-31.51,0,*52
1530587003.15,23644,15.0,73746.3,-1.07,-31.33,-31.91,0,*59
1530587004.42,23645,15.0,73744.8,-1.07,-31.39,-32.07,0,*5E
1530587005.67,23646,15.0,73750.0,-1.07,-31.39,-31.91,0,*51
1530587006.91,23647,15.0,73744.5,-1.11,-31.33,-31.85,0,*58
1530587008.14,23648,15.0,73746.5,-1.11,-31.17,-31.73,0,*58
1530587009.37,23649,15.0,73746.0,-1.11,-31.39,-32.01,0,*53
1530587010.6,23650,15.0,73748.0,-1.11,-31.51,-32.01,0,*55
1530587011.82,23651,15.0,73744.0,-1.13,-31.05,-31.79,0,*5B
1530587013.08,23652,15.0,73748.5,-1.13,-31.05,-31.61,0,*51
1530587014.34,23653,15.0,73748.3,-1.13,-31.17,-31.61,0,*53
1530587015.6,23654,15.0,73748.0,-1.13,-31.29,-31.91,0,*56
1530587016.84,23655,15.0,73750.5,-1.13,-31.45,-32.23,0,*57
1530587018.1,23656,15.0,73750.3,-1.13,-31.57,-32.23,0,*57
1530587019.34,23657,15.0,73748.8,-1.15,-31.61,-32.23,0,*55
1530587020.59,23658,15.0,73748.8,-1.15,-31.45,-31.95,0,*52
1530587021.83,23659,15.0,73752.8,-1.15,-31.57,-32.13,0,*5D
1530587023.09,23660,15.0,73748.0,-1.13,-31.57,-32.13,0,*51
1530587024.3,23661,15.0,73748.5,-1.15,-31.45,-32.13,0,*55
1530587025.54,23662,15.0,73754.8,-1.15,-31.29,-31.91,0,*55
1530587026.78,23663,15.0,73750.8,-1.15,-31.45,-31.91,0,*5E
1530587028.01,23664,15.0,73746.0,-1.15,-31.05,-31.57,0,*57
1530587029.26,23665,15.0,73748.3,-1.15,-30.55,-30.95,0,*5D
1530587030.48,23666,15.0,73746.0,-1.17,-30.77,-31.33,0,*51
1530587031.74,23667,15.0,73746.5,-1.17,-30.89,-31.51,0,*55
1530587032.97,23668,15.0,73742.0,-1.15,-31.05,-31.61,0,*5E
1530587034.2,23669,15.0,73740.3,-1.17,-31.29,-31.85,0,*59
1530587035.42,23670,15.0,73746.8,-1.17,-31.11,-31.67,0,*56
1530587036.64,23671,15.0,73744.8,-1.15,-31.01,-31.45,0,*54
1530587037.87,23672,15.0,73744.3,-1.15,-31.05,-31.61,0,*55
1530587039.12,23673,15.0,73746.3,-1.17,-30.95,-31.61,0,*5E
1530587040.36,23674,15.0,73746.0,-1.17,-31.45,-31.95,0,*5E
1530587041.56,23675,15.0,73750.8,-1.17,-31.33,-32.01,0,*50
1530587042.78,23676,15.0,73748.3,-1.17,-31.33,-31.85,0,*5C
1530587044.02,23677,15.0,73750.0,-1.15,-31.33,-31.85,0,*5F
1530587045.24,23678,15.0,73746.0,-1.17,-31.11,-31.67,0,*5E
1530587046.47,23679,15.0,73744.8,-1.17,-31.05,-31.61,0,*5C
1530587047.7,23680,15.0,73746.3,-1.17,-31.23,-31.79,0,*57
1530587048.92,23681,15.0,73746.8,-1.17,-30.73,-31.33,0,*5C
1530587050.13,23682,15.0,73746.3,-1.15,-31.01,-31.45,0,*58
1530587051.36,23683,15.0,73744.5,-1.17,-31.11,-31.67,0,*5A
1530587052.56,23684,15.0,73742.8,-1.17,-31.29,-31.79,0,*59
1530587053.79,23685,15.0,73746.0,-1.17,-31.33,-31.95,0,*51
1530587054.99,23686,15.0,73746.5,-1.17,-31.29,-31.67,0,*54
1530587056.21,23687,15.0,73746.5,-1.17,-30.73,-31.33,0,*5A
1530587057.44,23688,15.0,73744.8,-1.17,-30.89,-31.45,0,*51
1530587058.7,23689,15.0,73744.3,-1.17,-31.23,-31.85,0,*5D
1530587059.93,23690,15.0,73746.3,-1.17,-31.29,-31.95,0,*5E
1530587061.18,23691,15.0,73740.8,-1.17,-31.51,-32.19,0,*57
1530587062.38,23692,15.0,73744.8,-1.17,-31.45,-32.01,0,*58
1530587063.61,23693,15.0,73744.3,-1.17,-31.51,-32.01,0,*5C
1530587064.81,23694,15.0,73744.8,-1.17,-31.33,-32.01,0,*5F
1530587066.08,23695,15.0,73744.0,-1.19,-30.95,-31.51,0,*5B
1530587067.31,23696,15.0,73746.5,-1.17,-31.23,-31.79,0,*50
1530587068.57,23697,15.0,73746.3,-1.17,-30.95,-31.61,0,*54
1530587069.82,23698,15.0,73748.3,-1.17,-31.11,-31.61,0,*56
1530587071.08,23699,15.0,73748.3,-1.17,-30.89,-31.51,0,*54
1530587072.33,23700,15.0,73744.0,-1.17,-30.73,-31.23,0,*55
1530587073.56,23701,15.0,73746.0,-1.17,-30.73,-31.33,0,*55
1530587074.79,23702,14.94,73746.0,-1.17,-30.89,-31.45,0,*52
1530587076.02,23703,15.0,73748.8,-1.15,-30.55,-31.05,0,*54
1530587077.25,23704,15.0,73748.0,-1.17,-30.23,-30.73,0,*50
1530587078.47,23705,15.0,73744.8,-1.17,-30.11,-30.55,0,*54
1530587079.72,23706,15.0,73748.8,-1.15,-30.17,-30.67,0,*52
1530587080.93,23707,15.0,73750.0,-1.15,-30.33,-30.83,0,*5F
1530587082.18,23708,15.0,73744.3,-1.15,-29.83,-30.39,0,*52
1530587083.45,23709,15.0,73748.0,-1.13,-29.67,-30.17,0,*53
1530587084.7,23710,15.0,73746.3,-1.13,-29.17,-29.79,0,*5C
1530587085.91,23711,15.0,73746.3,-1.11,-29.07,-29.45,0,*51
1530587087.12,23712,15.0,73746.3,-1.07,-29.07,-29.61,0,*53
1530587088.36,23713,14.94,73746.5,-1.07,-29.61,-30.01,0,*5C
1530587089.64,23714,15.0,73744.0,-1.07,-29.39,-29.89,0,*5E
1530587090.93,23715,15.0,73744.8,-1.05,-29.39,-29.89,0,*5D
1530587092.19,23716,15.0,73744.0,-1.01,-29.29,-29.67,0,*5B
1530587093.45,23717,15.0,73750.0,-1.01,-29.01,-29.61,0,*56
1530587094.71,23718,15.0,73746.3,-1.01,-28.85,-29.35,0,*55
1530587095.96,23719,15.0,73744.8,-0.97,-28.59,-29.07,0,*6A
1530587097.19,23720,15.0,73744.0,-0.97,-29.23,-29.61,0,*6C
1530587098.46,23721,15.0,73740.8,-0.93,-29.17,-29.73,0,*6D
1530587099.74,23722,15.0,73742.3,-0.93,-29.01,-29.51,0,*69
1530587101.02,23723,15.0,73744.0,-0.93,-29.01,-29.35,0,*6A
1530587102.24,23724,15.0,73746.8,-0.93,-28.85,-29.23,0,*67
1530587103.49,23725,15.0,73742.0,-0.85,-28.59,-29.23,0,*60
1530587104.73,23726,15.0,73742.5,-0.89,-29.01,-29.61,0,*65
1530587106.01,23727,15.0,73742.8,-0.89,-27.45,-27.83,0,*68
1530587107.24,23728,15.0,73742.8,-0.83,-27.03,-27.51,0,*60
1530587108.48,23729,15.0,73744.8,-0.81,-27.61,-28.31,0,*6E
1530587109.7,23730,15.0,73744.5,-0.79,-28.31,-28.69,0,*66
1530587110.93,23731,15.0,73750.0,-0.77,-28.09,-28.53,0,*6B
1530587112.19,23732,15.0,73748.5,-0.75,-27.71,-28.25,0,*6B
1530587113.44,23733,15.0,73740.8,-0.75,-27.89,-28.25,0,*6D
1530587114.67,23734,15.0,73742.0,-0.73,-27.67,-28.05,0,*6E
1530587115.92,23735,15.0,73746.3,-0.69,-29.01,-29.39,0,*64
1530587117.12,23736,15.0,73744.3,-0.69,-29.45,-29.95,0,*61
1530587118.38,23737,15.0,73744.3,-0.69,-29.35,-29.73,0,*6F
1530587119.64,23738,15.0,73742.8,-0.69,-29.35,-29.89,0,*65
1530587120.89,23739,15.0,73742.5,-0.67,-29.67,-30.05,0,*61
1530587122.15,23740,15.0,73738.3,-0.67,-29.83,-30.39,0,*6A
1530587123.38,23741,15.0,73738.8,-0.67,-29.83,-30.33,0,*61
1530587124.67,23742,15.0,73738.5,-0.67,-30.01,-30.61,0,*67
1530587125.93,23743,15.0,73740.0,-0.67,-30.33,-30.77,0,*60
1530587127.14,23744,15.0,73744.0,-0.69,-30.55,-31.01,0,*69
1530587128.41,23745,14.94,73742.8,-0.67,-30.55,-31.11,0,*67
1530587129.62,23746,15.0,73744.0,-0.69,-30.83,-31.33,0,*61
1530587130.87,23747,15.0,73746.8,-0.67,-30.89,-31.45,0,*65
1530587132.13,23748,15.0,73746.0,-0.69,-30.95,-31.51,0,*6C
1530587133.32,23749,15.0,73746.3,-0.69,-31.01,-31.67,0,*64
1530587134.6,23750,15.0,73750.8,-0.71,-31.11,-31.61,0,*62
1530587135.85,23751,15.0,73752.0,-0.71,-31.11,-31.67,0,*65
1530587137.06,23752,15.0,73750.8,-0.71,-31.01,-31.67,0,*67
1530587138.25,23753,15.0,73750.8,-0.73,-31.05,-31.67,0,*60
1530587139.48,23754,15.0,73754.0,-0.73,-31.11,-31.67,0,*62
1530587140.7,23755,15.0,73750.3,-0.73,-31.17,-31.73,0,*60
1530587141.92,23756,15.0,73752.8,-0.75,-31.33,-31.79,0,*69
1530587143.2,23757,15.0,73752.5,-0.75,-31.39,-31.95,0,*60
1530587144.45,23758,15.0,73754.0,-0.75,-31.39,-31.79,0,*6D
1530587145.7,23759,15.0,73754.3,-0.77,-31.51,-31.95,0,*62
1530587146.98,23760,15.0,73752.0,-0.75,-31.39,-31.91,0,*60
1530587148.22,23761,15.0,73752.0,-0.77,-31.39,-31.85,0,*66
1530587149.45,23762,15.0,73756.3,-0.75,-31.17,-31.79,0,*68
1530587150.68,23763,15.0,73754.8,-0.77,-29.89,-30.33,0,*6A
1530587151.97,23764,15.0,73748.8,-0.75,-29.51,-30.01,0,*6B
1530587153.23,23765,15.0,73750.3,-0.75,-29.67,-30.17,0,*68
1530587154.46,23766,15.0,73740.3,-0.75,-29.95,-30.45,0,*61
1530587155.75,23767,15.0,73742.0,-0.75,-30.17,-30.89,0,*62
1530587157.0,23768,15.0,73746.8,-0.75,-30.45,-30.89,0,*6A
1530587158.26,23769,15.0,73746.5,-0.75,-30.45,-30.89,0,*6B
1530587159.51,23770,15.0,73744.8,-0.77,-30.77,-31.39,0,*6A
1530587160.7,23771,15.0,73744.5,-0.77,-31.05,-31.67,0,*64
1530587161.95,23772,15.0,73744.3,-0.75,-31.05,-31.73,0,*60
1530587163.19,23773,15.0,73750.5,-0.75,-31.05,-31.57,0,*67
1530587164.44,23774,15.0,73748.8,-0.77,-30.77,-31.39,0,*6E
1530587165.67,23775,15.0,73744.8,-0.75,-30.83,-31.33,0,*6C
1530587166.93,23776,15.0,73754.0,-0.75,-30.83,-31.39,0,*65
1530587168.2,23777,15.0,73754.3,-0.75,-30.89,-31.51,0,*60
1530587169.42,23778,15.0,73750.8,-0.77,-31.05,-31.73,0,*68
1530587170.64,23779,15.0,73748.8,-0.77,-31.05,-31.57,0,*6F
1530587171.89,23780,15.0,73750.8,-0.77,-30.95,-31.61,0,*64
1530587173.14,23781,15.0,73752.8,-0.77,-30.89,-31.39,0,*65
1530587174.38,23782,15.0,73746.5,-0.77,-30.39,-30.95,0,*6A
1530587175.63,23783,15.0,73748.8,-0.75,-30.51,-31.05,0,*6F
1530587176.86,23784,15.0,73748.3,-0.77,-30.23,-30.89,0,*6A
1530587178.11,23785,15.0,73748.5,-0.77,-30.05,-30.51,0,*6A
1530587179.33,23786,15.0,73750.0,-0.77,-30.11,-30.51,0,*6C
1530587180.59,23787,15.0,73746.5,-0.73,-30.17,-30.73,0,*6F
1530587181.82,23788,15.0,73750.3,-0.77,-30.77,-31.29,0,*6C
1530587183.1,23789,15.0,73750.8,-0.75,-30.89,-31.51,0,*61
1530587184.34,23790,15.0,73748.8,-0.75,-31.05,-31.57,0,*6A
1530587185.62,23791,15.0,73746.5,-0.75,-30.89,-31.51,0,*68
1530587186.84,23792,15.0,73750.5,-0.75,-31.05,-31.67,0,*6B
1530587188.08,23793,15.0,73750.8,-0.75,-31.05,-31.57,0,*69
1530587189.31,23794,15.0,73748.3,-0.77,-30.95,-31.45,0,*67
1530587190.59,23795,15.0,73748.8,-0.75,-30.01,-30.51,0,*6D
1530587191.82,23796,15.0,73746.0,-0.77,-30.67,-31.23,0,*68
1530587193.08,23797,15.0,73744.3,-0.75,-30.67,-31.23,0,*6B
1530587194.33,23798,15.0,73746.3,-0.77,-30.73,-31.23,0,*63
1530587195.61,23799,15.0,73746.5,-0.75,-30.01,-30.51,0,*61
1530587196.89,23800,15.0,73746.5,-0.75,-30.01,-30.61,0,*6D
1530587198.13,23801,15.0,73746.3,-0.77,-29.83,-30.17,0,*6D
1530587199.41,23802,15.0,73748.3,-0.75,-29.51,-30.01,0,*64
1530587200.66,23803,15.0,73748.5,-0.75,-29.07,-29.39,0,*65
1530587201.88,23804,15.0,73748.5,-0.73,-29.13,-29.61,0,*6C
1530587203.14,23805,15.0,73742.3,-0.71,-29.35,-29.79,0,*62
1530587204.41,23806,15.0,73742.8,-0.71,-29.73,-30.05,0,*60
1530587205.64,23807,15.0,73744.3,-0.69,-29.61,-29.89,0,*67
1530587206.89,23808,15.0,73744.8,-0.67,-29.57,-29.73,0,*66
1530587208.12,23809,15.0,73746.5,-0.63,-29.61,-29.95,0,*6E
1530587209.38,23810,15.0,73748.8,-0.63,-29.61,-30.01,0,*63
1530587210.61,23811,15.0,73742.0,-0.67,-29.83,-30.23,0,*6A
1530587211.87,23812,15.0,73742.5,-0.67,-29.83,-30.39,0,*62
1530587213.14,23813,15.0,73746.5,-0.67,-29.73,-30.05,0,*63
1530587214.4,23814,15.0,73740.5,-0.63,-29.51,-29.95,0,*61
1530587215.6,23815,15.0,73740.0,-0.61,-29.67,-30.11,0,*63
1530587216.83,23816,15.0,73736.8,-0.63,-29.83,-30.27,0,*6D
1530587218.04,23817,15.0,73746.8,-0.61,-29.95,-30.33,0,*6C
1530587219.27,23818,15.0,73744.3,-0.61,-30.27,-30.73,0,*66
1530587220.51,23819,15.0,73746.8,-0.63,-30.27,-30.67,0,*60
1530587221.74,23820,15.0,73748.0,-0.63,-30.33,-30.83,0,*65
1530587222.97,23821,15.0,73744.8,-0.59,-30.45,-31.01,0,*67
1530587224.19,23822,15.0,73746.8,-0.63,-30.45,-31.01,0,*6D
1530587225.39,23823,15.0,73746.5,-0.61,-30.11,-30.45,0,*6E
1530587226.64,23824,15.0,73746.3,-0.59,-29.23,-29.73,0,*66
1530587227.89,23825,15.0,73748.0,-0.59,-29.73,-30.23,0,*6F
1530587229.12,23826,15.0,73742.3,-0.61,-30.11,-30.55,0,*6A
1530587230.33,23827,14.94,73732.5,-0.61,-29.95,-30.33,0,*6F
1530587231.53,23828,15.0,73736.8,-0.61,-29.95,-30.45,0,*61
1530587232.77,23829,15.0,73742.8,-0.59,-30.23,-30.67,0,*6E
1530587234.0,23830,15.0,73742.3,-0.57,-30.23,-30.77,0,*69
1530587235.26,23831,15.0,73750.0,-0.59,-30.23,-30.77,0,*66
1530587236.51,23832,15.0,73748.3,-0.59,-30.61,-31.01,0,*63
1530587237.76,23833,15.0,73750.5,-0.59,-30.51,-31.01,0,*61
1530587239.01,23834,15.0,73748.8,-0.59,-30.51,-31.01,0,*66
1530587240.26,23835,15.0,73746.8,-0.59,-30.45,-31.11,0,*63
1530587241.5,23836,15.0,73746.8,-0.59,-30.27,-30.83,0,*6E
1530587242.73,23837,15.0,73746.5,-0.59,-30.45,-31.01,0,*60
1530587243.98,23838,15.0,73746.8,-0.59,-30.77,-31.33,0,*6F
1530587245.22,23839,15.0,73744.5,-0.59,-30.83,-31.45,0,*64
1530587246.46,23840,15.0,73746.0,-0.61,-30.89,-31.57,0,*68
1530587247.68,23841,15.0,73746.3,-0.61,-31.05,-31.57,0,*6C
1530587248.93,23842,15.0,73746.0,-0.59,-31.11,-31.67,0,*62
1530587250.21,23843,15.0,73746.0,-0.59,-31.11,-31.57,0,*60
1530587251.42,23844,15.0,73746.8,-0.61,-30.27,-30.83,0,*60
1530587252.65,23845,15.0,73742.8,-0.61,-30.51,-31.01,0,*6B
1530587253.9,23846,15.0,73742.3,-0.63,-30.83,-31.39,0,*6E
1530587255.17,23847,15.0,73744.3,-0.63,-30.89,-31.57,0,*6D
1530587256.39,23848,15.0,73744.5,-0.61,-31.01,-31.57,0,*61
1530587257.64,23849,15.0,73750.5,-0.63,-31.17,-31.61,0,*60
1530587258.87,23850,15.0,73748.3,-0.61,-31.05,-31.61,0,*69
1530587260.11,23851,15.0,73748.3,-0.63,-31.05,-31.61,0,*6A
1530587261.4,23852,15.0,73750.0,-0.63,-31.23,-31.91,0,*62
1530587262.68,23853,15.0,73748.0,-0.63,-31.23,-31.95,0,*67
1530587263.93,23854,15.0,73746.3,-0.67,-31.39,-32.01,0,*61
1530587265.18,23855,15.0,73746.3,-0.67,-31.39,-32.13,0,*63
1530587266.43,23856,15.0,73750.0,-0.69,-31.51,-32.19,0,*6A
1530587267.66,23857,15.0,73748.0,-0.69,-31.45,-32.07,0,*61
1530587268.88,23858,15.0,73752.3,-0.69,-31.33,-31.91,0,*63
1530587270.16,23859,15.0,73752.3,-0.67,-31.39,-31.95,0,*62
1530587271.36,23860,15.0,73752.8,-0.69,-31.45,-32.01,0,*63
1530587272.59,23861,15.0,73748.5,-0.69,-31.29,-31.91,0,*62
1530587273.86,23862,15.0,73750.8,-0.71,-31.11,-31.73,0,*6F
1530587275.11,23863,15.0,73748.3,-0.71,-30.61,-31.17,0,*6A
1530587276.37,23864,15.0,73742.5,-0.71,-29.89,-30.23,0,*65
1530587277.59,23865,15.0,73744.0,-0.71,-29.79,-30.27,0,*6F
1530587278.82,23866,15.0,73744.5,-0.71,-30.23,-30.83,0,*65
1530587280.1,23867,15.0,73740.5,-0.67,-30.05,-30.73,0,*68
1530587281.36,23868,15.0,73742.8,-0.67,-30.23,-30.73,0,*63
1530587282.64,23869,15.0,73736.8,-0.67,-30.05,-30.73,0,*66
1530587283.89,23870,15.0,73732.3,-0.67,-29.57,-30.05,0,*60
1530587285.18,23871,15.0,73738.3,-0.67,-30.17,-30.61,0,*6F
1530587286.45,23872,15.0,73736.3,-0.67,-30.55,-31.11,0,*6C
1530587287.7,23873,15.0,73738.5,-0.63,-30.55,-31.17,0,*6F
1530587288.95,23874,15.0,73742.8,-0.63,-30.45,-30.89,0,*6F
1530587290.18,23875,15.0,73742.5,-0.63,-30.67,-31.33,0,*6E
1530587291.43,23876,15.0,73746.8,-0.67,-30.51,-31.17,0,*6A
1530587292.7,23877,15.0,73744.8,-0.67,-30.39,-31.11,0,*63
1530587293.98,23878,15.0,73744.0,-0.67,-30.51,-31.11,0,*62
1530587295.2,23879,15.0,73742.8,-0.63,-30.33,-31.01,0,*62
1530587296.44,23880,15.0,73742.3,-0.63,-30.11,-30.67,0,*65
1530587297.66,23881,15.0,73742.5,-0.63,-30.45,-31.01,0,*64
1530587298.85,23882,15.0,73740.0,-0.61,-30.33,-31.01,0,*64
1530587300.11,23883,15.0,73738.5,-0.63,-30.01,-30.67,0,*67
1530587301.33,23884,15.0,73740.8,-0.61,-30.11,-30.55,0,*62
1530587302.59,23885,15.0,73738.5,-0.63,-30.17,-30.67,0,*66
1530587303.85,23886,15.0,73740.0,-0.59,-29.95,-30.51,0,*6B
1530587305.08,23887,15.0,73736.3,-0.61,-30.33,-30.89,0,*60